Regional Weather Roundup
Issued by NWS

Home | Current Version | Previous Version | Text Only | Print | Product List | Glossary On
Versions: 1 2 3 4 5 6 7 8 9 10 11 12 13 14 15 16 17 18 19 20 21 22 23 24 25 26 27 28 29 30 31 32 33 34 35 36 37 38 39 40 41 42 43 44 45 46 47 48 49 50
000
ASUS44 KJAN 260510
RWRMS

MISSISSIPPI HOURLY WEATHER ROUNDUP
NATIONAL WEATHER SERVICE JACKSON MS
1200 AM CDT THU MAY 26 2016

NOTE: "FAIR: INDICATES FEW OR NO CLOUDS BELOW 12,000 FEET WITH NO
SIGNIFICANT WEATHER AND/OR OBSTRUCTIONS TO VISIBILITY.

MSZ001>002-007>008-010>013-018>021-025>028-034>036-260600-
NORTHWEST MISSISSIPPI

CITY           SKY/WX    TMP DP  RH WIND       PRES   REMARKS
BATESVILLE     FAIR      75  64  68 SE3       30.07F
CLARKSDALE     PTCLDY    77  70  78 S7        30.05S
CLEVELAND      CLOUDY    79  72  78 S7        30.05F
GREENWOOD      CLEAR     78  65  63 SE10      30.06F
GREENVILLE     CLOUDY    77  67  71 S10       30.05F
OLIVE BRANCH   CLEAR     66  66 100 S7        30.06F
OXFORD         FAIR      72  59  64 SE9       30.09F
TUNICA         PTCLDY    72  68  88 SE7       30.06S
WINONA         FAIR      75  67  76 SE6       30.08F
$$

MSZ003>006-009-014>017-022>024-029>033-037>039-260600-
NORTHEAST MISSISSIPPI

CITY           SKY/WX    TMP DP  RH WIND       PRES   REMARKS
COLUMBUS AFB   CLEAR     68  63  84 SE6       30.09F
CORINTH        FAIR      64  61  88 S6        30.08F
GOLDN TRIANGLE CLOUDY    73  59  60 SE9       30.10F
STARKVILLE     FAIR      72  63  73 SE5       30.09F
TUPELO         CLEAR     69  61  75 SE6       30.08F
$$

MSZ040-058-260600-
CENTRAL MISSISSIPPI

CITY           SKY/WX    TMP DP  RH WIND       PRES   REMARKS
JACKSON INTL   CLOUDY    77  70  79 SE8       30.10F
JACKSON HAWKNS CLOUDY    77  70  79 SE10      30.10F
MADISON        MOCLDY    77  70  78 S3        30.10F
MERIDIAN KEY   CLOUDY    75  66  73 S5        30.13F
MERIDIAN NAS   CLOUDY    72  62  71 SE3       30.13F
VICKSBURG TVR  CLOUDY    76  71  85 E6        30.06F
VICKSBURG VKS  PTCLDY    79  72  78 VRB6      30.07S
$$

MSZ059>079-260600-
SOUTH MISSISSIPPI

CITY           SKY/WX    TMP DP  RH WIND       PRES   REMARKS
BROOKHAVEN     FAIR     N/A N/A N/A S12       30.09F
COLUMBIA       FAIR      73  68  83 S7G14     30.14F
HATTIESBURG    CLOUDY    74  67  78 S5        30.13F
MCCOMB         CLOUDY    75  69  81 SE9       30.11F
NATCHEZ        MOCLDY    77  70  78 S9        30.10S
PINE BELT      CLOUDY    73  64  73 S8        30.12F
$$

MSZ080>082-260600-
COASTAL MISSISSIPPI

CITY           SKY/WX    TMP DP  RH WIND       PRES   REMARKS
BILOXI         PTCLDY    77  71  81 S8        30.12F
PASCAGOULA     PTCLDY    66  64  93 CALM      30.13F
GULFPORT       PTCLDY    76  69  79 SE3       30.12F
$$




USA.gov is the U.S. government's official web portal to all federal, state and local government web resources and services.